Gioiese

Una Gioiese “arrabbiata” in cerca di riscatto oggi a Sersale

Per evitare concomitanza con le elezioni, si anticipano oggi le gare dei campionati dilettantistici calabresi. Per la terza giornata di Eccellenza, la Gioiese renderà visita all'ostico Sersale e vuole tornare a fare punti dopo...

Stop inatteso per la Gioiese

Brusco risveglio alla realtà per la Gioiese che, dopo l’impresa di domenica sul campo della Promosport, cede a sorpresa sul neutro di Cittanova, al cospetto di una cinica Reggiomediterranea, formazione solida e dimostratasi molto...

Un goal per tempo e la Reggiomed vince contro la Gioiese [FOTO]

Sul sintetico del Morreale Proto di Cittanova, la Reggiomed batte la Gioiese grazie alle reti di Salvador e Franzò. Inizio gara fase di studio per le due squadre. Al minuto 17 prima conclusione degna di...

Debutto casalingo per la Gioiese contro la Reggiomediterranea

Gran colpo della Gioiese che, in chiusura di mercato, ha ingaggiato il forte attaccante Angelo Catania, classe 1993, proveniente dalla formazione toscana del Tuttocuoio (dove militava lo scorso anno Lazzarini). Catania lo scorso anno ha...

Gioiese, colpo in attacco in chiusura di mercato

Dopo l'importante campagna acquisti estiva e dopo la grande vittoria contro la Promosport, la Gioiese si assicura un altro atleta di spessore. Con i suoi oltre 100 goal in carriera entra nel team della...
DataCasaRisultatiTrasfertaOra
2022-10-02 14:30:0002/10/22- 14:30:0014:30
2022-09-24 14:30:0024/09/221 - 2 14:30:0014:30
2022-09-18 14:30:0018/09/220 - 2 14:30:0014:30
2022-09-11 14:30:0011/09/221 - 2 14:30:0014:30
2022-05-01 14:30:0001/05/224 - 3 14:30:0014:30
2022-04-24 14:30:0024/04/220 - 1 14:30:0014:30
2022-04-10 14:30:0010/04/225 - 0 14:30:0014:30
2022-04-03 14:30:0003/04/221 - 1 14:30:0014:30
2022-03-27 14:30:0027/03/222 - 0 14:30:0014:30
2022-03-20 14:30:0020/03/220 - 0 14:30:0014:30
2022-03-13 14:30:0013/03/225 - 1 14:30:0014:30
2022-03-06 14:30:0006/03/222 - 0 14:30:0014:30
2022-03-02 14:30:0002/03/220 - 4 14:30:0014:30
2022-02-27 14:30:0027/02/221 - 1 14:30:0014:30
2022-02-20 14:30:0020/02/220 - 3 14:30:0014:30
2022-02-13 14:30:0013/02/224 - 3 14:30:0014:30
2022-02-05 14:30:0005/02/220 - 2 14:30:0014:30
2022-01-30 14:30:0030/01/221 - 1 14:30:0014:30
2022-01-23 14:30:0023/01/221 - 2 14:30:0014:30
2022-01-06 14:30:0006/01/220 - 2 14:30:0014:30
2021-12-19 14:30:0019/12/212 - 3 14:30:0014:30
2021-12-12 14:30:0012/12/210 - 2 14:30:0014:30
2021-12-05 14:30:0005/12/210 - 3 14:30:0014:30
2021-11-28 14:30:0028/11/211 - 2 14:30:0014:30
2021-11-21 14:30:0021/11/212 - 1 14:30:0014:30
2021-11-14 14:30:0014/11/211 - 2 14:30:0014:30
2021-11-07 14:30:0007/11/210 - 3 14:30:0014:30
2021-10-31 14:30:0031/10/211 - 0 14:30:0014:30
2021-10-23 14:30:0023/10/211 - 3 14:30:0014:30
2021-10-17 14:30:0017/10/212 - 0 14:30:0014:30
2021-10-09 14:30:0009/10/211 - 0 14:30:0014:30
2021-10-03 15:30:0003/10/211 - 0 15:30:0015:30
2021-09-26 15:30:0026/09/210 - 0 15:30:0015:30
2021-09-18 15:30:0018/09/216 - 0 15:30:0015:30
2021-01-17 15:00:0017/01/21- 15:00:0015:00
2021-01-10 15:00:0010/01/21- 15:00:0015:00
2021-01-06 15:00:0006/01/21- 15:00:0015:00
2020-12-20 15:00:0020/12/20- 15:00:0015:00
2020-12-12 15:00:0012/12/20- 15:00:0015:00
2020-12-06 15:00:0006/12/20- 15:00:0015:00
2020-11-28 15:00:0028/11/20- 15:00:0015:00
2020-11-25 15:00:0025/11/20- 15:00:0015:00
2020-11-22 15:00:0022/11/20- 15:00:0015:00
2020-11-15 15:00:0015/11/20- 15:00:0015:00
2020-11-07 15:00:0007/11/20- 15:00:0015:00
2020-11-01 15:00:0001/11/20- 15:00:0015:00
2020-10-25 15:00:0025/10/201 - 2 15:00:0015:00
2020-10-21 15:00:0021/10/202 - 0 15:00:0015:00
2020-10-18 15:00:0018/10/202 - 2 15:00:0015:00
2020-10-11 15:00:0011/10/202 - 0 15:00:0015:00
2020-10-04 15:00:0004/10/203 - 1 15:00:0015:00
2020-09-27 15:00:0027/09/206 - 0 15:00:0015:00
2020-04-19 15:30:0019/04/20- 15:30:0015:30
2020-04-05 15:30:0005/04/20- 15:30:0015:30
2020-03-29 15:30:0029/03/20- 15:30:0015:30
2020-03-22 14:30:0022/03/20- 14:30:0014:30
2020-03-15 14:30:0015/03/20- 14:30:0014:30
2020-03-08 14:30:0008/03/20- 14:30:0014:30
2020-03-01 14:30:0001/03/201 - 0 14:30:0014:30
2020-02-23 14:30:0023/02/200 - 0 14:30:0014:30
2020-02-16 14:30:0016/02/200 - 0 14:30:0014:30
2020-02-09 14:30:0009/02/203 - 1 14:30:0014:30
2020-02-02 14:30:0002/02/203 - 1 14:30:0014:30
2020-01-26 14:30:0026/01/202 - 1 14:30:0014:30
2020-01-19 14:30:0019/01/202 - 0 14:30:0014:30
2020-01-12 14:30:0012/01/202 - 0 14:30:0014:30
2020-01-05 14:30:0005/01/201 - 2 14:30:0014:30
2019-12-14 14:30:0014/12/191 - 1 14:30:0014:30
2019-12-08 14:30:0008/12/193 - 0 14:30:0014:30
2019-12-01 14:30:0001/12/193 - 1 14:30:0014:30
2019-11-24 14:30:0024/11/191 - 0 14:30:0014:30
2019-11-16 14:30:0016/11/192 - 1 14:30:0014:30
2019-11-10 14:30:0010/11/190 - 1 14:30:0014:30
2019-11-02 14:30:0002/11/192 - 1 14:30:0014:30
2019-10-26 14:30:0026/10/192 - 1 14:30:0014:30
2019-10-20 15:30:0020/10/190 - 1 15:30:0015:30
2019-10-12 15:30:0012/10/190 - 0 15:30:0015:30
2019-10-06 15:30:0006/10/193 - 1 15:30:0015:30
2019-09-28 15:30:0028/09/193 - 2 15:30:0015:30
2019-09-22 15:30:0022/09/191 - 5 15:30:0015:30
2019-09-15 15:30:0015/09/193 - 0 15:30:0015:30
2019-09-08 15:30:0008/09/192 - 5 15:30:0015:30
2019-04-28 16:00:0028/04/192 - 0 16:00:0016:00
2019-04-07 16:00:0007/04/192 - 1 16:00:0016:00
2019-03-31 16:00:0031/03/193 - 2 16:00:0016:00
2019-03-24 15:00:0024/03/192 - 0 15:00:0015:00
2019-03-17 15:00:0017/03/192 - 2 15:00:0015:00
2019-03-10 15:00:0010/03/191 - 2 15:00:0015:00
2019-03-03 15:00:0003/03/192 - 2 15:00:0015:00
2019-02-24 14:30:0024/02/193 - 3 14:30:0014:30
2019-02-17 14:30:0017/02/194 - 0 14:30:0014:30
2019-02-10 14:30:0010/02/193 - 1 14:30:0014:30
2019-02-01 14:30:0001/02/193 - 1 14:30:0014:30
2019-01-27 14:30:0027/01/191 - 0 14:30:0014:30
2019-01-20 14:30:0020/01/190 - 1 14:30:0014:30
2019-01-13 14:30:0013/01/191 - 2 14:30:0014:30
2019-01-06 14:30:0006/01/194 - 3 14:30:0014:30
2018-12-16 14:30:0016/12/180 - 1 14:30:0014:30
2018-12-09 14:30:0009/12/182 - 0 14:30:0014:30
2018-12-02 14:30:0002/12/184 - 0 14:30:0014:30
2018-11-25 14:30:0025/11/181 - 0 14:30:0014:30
2018-11-18 14:30:0018/11/181 - 1 14:30:0014:30
2018-11-11 14:30:0011/11/180 - 0 14:30:0014:30
2018-11-04 14:30:0004/11/183 - 1 14:30:0014:30
2018-10-28 15:30:0028/10/182 - 0 15:30:0015:30
2018-10-21 15:30:0021/10/181 - 2 15:30:0015:30
2018-10-14 15:30:0014/10/180 - 3 15:30:0015:30
2018-10-07 15:30:0007/10/183 - 2 15:30:0015:30
2018-09-30 15:30:0030/09/180 - 0 15:30:0015:30
2018-09-23 15:30:0023/09/182 - 1 15:30:0015:30
2018-09-16 15:30:0016/09/184 - 2 15:30:0015:30
2018-09-09 15:30:0009/09/181 - 1 15:30:0015:30
2018-04-22 16:00:0022/04/182 - 1 16:00:0016:00
2018-04-15 16:00:0015/04/182 - 1 16:00:0016:00
2018-04-08 16:00:0008/04/18- 16:00:0016:00
2018-03-18 15:00:0018/03/180 - 1 15:00:0015:00
2018-03-11 15:00:0011/03/183 - 0 15:00:0015:00
2018-03-04 15:00:0004/03/181 - 1 15:00:0015:00
2018-02-25 14:30:0025/02/181 - 0 14:30:0014:30
2018-02-18 14:30:0018/02/181 - 0 14:30:0014:30
2018-02-11 14:30:0011/02/183 - 0 14:30:0014:30
2018-02-04 14:30:0004/02/180 - 3 14:30:0014:30
2018-01-28 14:30:0028/01/182 - 1 14:30:0014:30
2018-01-21 14:30:0021/01/181 - 1 14:30:0014:30
2018-01-14 14:30:0014/01/182 - 1 14:30:0014:30
2018-01-07 14:30:0007/01/180 - 0 14:30:0014:30
2017-12-17 14:30:0017/12/171 - 2 14:30:0014:30
2017-12-10 14:30:0010/12/170 - 2 14:30:0014:30
2017-12-03 14:30:0003/12/171 - 0 14:30:0014:30
2017-11-26 14:30:0026/11/172 - 1 14:30:0014:30
2017-11-19 14:30:0019/11/172 - 0 14:30:0014:30
2017-11-12 14:30:0012/11/170 - 0 14:30:0014:30
2017-11-05 14:30:0005/11/174 - 1 14:30:0014:30
2017-10-29 14:30:0029/10/170 - 0 14:30:0014:30
2017-10-22 15:30:0022/10/171 - 0 15:30:0015:30
2017-10-15 15:30:0015/10/171 - 0 15:30:0015:30
2017-10-08 15:30:0008/10/172 - 0 15:30:0015:30
2017-10-01 15:30:0001/10/170 - 1 15:30:0015:30
2017-09-24 15:30:0024/09/170 - 0 15:30:0015:30
2017-09-17 15:30:0017/09/172 - 0 15:30:0015:30
2017-09-10 15:30:0010/09/170 - 1 15:30:0015:30